Time,TemperatureF,DewpointF,PressureIn,WindDirection,WindDirectionDegrees,WindSpeedMPH,WindSpeedGustMPH,Humidity,HourlyPrecipIn,Conditions,Clouds,dailyrainin,SoftwareType,DateUTC
2013-06-10 00:12:00,66.5,57.0,30.00,NNW,348,0.0,2.0,71,0.00,,,0.00,weatherlink.com 1.10,2013-06-10 04:12:00,
2013-06-10 00:27:00,66.2,57.0,29.99,North,355,0.0,1.0,73,0.00,,,0.00,weatherlink.com 1.10,2013-06-10 04:27:00,
2013-06-10 00:42:00,65.6,57.0,29.99,NNE,21,0.0,1.0,74,0.00,,,0.00,weatherlink.com 1.10,2013-06-10 04:42:00,
2013-06-10 00:57:00,66.0,58.0,29.99,NNE,29,0.0,1.0,74,0.00,,,0.00,weatherlink.com 1.10,2013-06-10 04:57:00,
2013-06-10 01:12:00,65.4,57.0,29.99,SSE,165,0.0,1.0,75,0.00,,,0.00,weatherlink.com 1.10,2013-06-10 05:12:00,
2013-06-10 01:27:00,65.3,57.0,29.98,SSE,165,0.0,1.0,75,0.00,,,0.00,weatherlink.com 1.10,2013-06-10 05:27:00,
2013-06-10 01:42:00,65.6,58.0,29.98,NE,34,0.0,4.0,76,0.00,,,0.00,weatherlink.com 1.10,2013-06-10 05:42:00,
2013-06-10 01:57:00,65.5,58.0,29.98,East,86,0.0,3.0,77,0.00,,,0.00,weatherlink.com 1.10,2013-06-10 05:57:00,
2013-06-10 02:12:00,64.0,60.0,29.97,ENE,69,1.0,1.0,85,0.00,,,0.00,weatherlink.com 1.10,2013-06-10 06:12:00,
2013-06-10 02:27:00,62.3,60.0,29.97,NE,55,0.0,1.0,92,0.00,,,0.00,weatherlink.com 1.10,2013-06-10 06:27:00,
2013-06-10 02:42:00,61.8,60.0,29.96,NE,55,0.0,1.0,94,0.00,,,0.00,weatherlink.com 1.10,2013-06-10 06:42:00,
2013-06-10 02:57:00,61.7,60.0,29.96,NE,55,0.0,0.0,95,0.00,,,0.00,weatherlink.com 1.10,2013-06-10 06:57:00,
2013-06-10 03:12:00,61.7,60.0,29.96,NE,51,0.0,1.0,95,0.00,,,0.00,weatherlink.com 1.10,2013-06-10 07:12:00,
2013-06-10 03:27:00,61.8,61.0,29.95,SE,137,0.0,1.0,96,0.00,,,0.00,weatherlink.com 1.10,2013-06-10 07:27:00,
2013-06-10 03:42:00,61.7,61.0,29.94,SE,137,0.0,1.0,96,0.00,,,0.00,weatherlink.com 1.10,2013-06-10 07:42:00,
2013-06-10 03:57:00,61.6,61.0,29.93,East,93,0.0,2.0,96,0.00,,,0.00,weatherlink.com 1.10,2013-06-10 07:57:00,
2013-06-10 04:12:00,61.5,60.0,29.93,NE,42,0.0,2.0,96,0.00,,,0.00,weatherlink.com 1.10,2013-06-10 08:12:00,
2013-06-10 04:27:00,61.5,60.0,29.93,ENE,76,0.0,1.0,96,0.00,,,0.00,weatherlink.com 1.10,2013-06-10 08:27:00,
2013-06-10 04:42:00,61.4,61.0,29.92,SE,138,0.0,1.0,97,0.00,,,0.00,weatherlink.com 1.10,2013-06-10 08:42:00,
2013-06-10 04:57:00,61.4,61.0,29.92,ESE,105,0.0,2.0,97,0.00,,,0.00,weatherlink.com 1.10,2013-06-10 08:57:00,
2013-06-10 05:12:00,61.3,61.0,29.91,ENE,73,0.0,1.0,97,0.00,,,0.00,weatherlink.com 1.10,2013-06-10 09:12:00,
2013-06-10 05:27:00,61.1,60.0,29.91,East,96,0.0,1.0,97,0.00,,,0.00,weatherlink.com 1.10,2013-06-10 09:27:00,
2013-06-10 05:42:00,61.1,60.0,29.91,ENE,74,0.0,2.0,97,0.00,,,0.00,weatherlink.com 1.10,2013-06-10 09:42:00,
2013-06-10 05:57:00,61.2,60.0,29.91,West,281,0.0,2.0,97,0.00,,,0.00,weatherlink.com 1.10,2013-06-10 09:57:00,
2013-06-10 06:12:00,61.3,61.0,29.91,SE,146,0.0,2.0,97,0.00,,,0.00,weatherlink.com 1.10,2013-06-10 10:12:00,
2013-06-10 06:27:00,61.6,61.0,29.91,SE,139,0.0,3.0,97,0.00,,,0.00,weatherlink.com 1.10,2013-06-10 10:27:00,
2013-06-10 06:42:00,61.7,61.0,29.90,SE,139,0.0,1.0,97,0.00,,,0.00,weatherlink.com 1.10,2013-06-10 10:42:00,
2013-06-10 06:57:00,61.7,61.0,29.90,ENE,61,0.0,2.0,97,0.00,,,0.00,weatherlink.com 1.10,2013-06-10 10:57:00,
2013-06-10 07:12:00,61.6,61.0,29.89,East,92,0.0,3.0,97,0.00,,,0.00,weatherlink.com 1.10,2013-06-10 11:12:00,
2013-06-10 07:28:00,61.6,61.0,29.89,NE,36,0.0,1.0,97,0.00,,,0.00,weatherlink.com 1.10,2013-06-10 11:28:00,
2013-06-10 07:43:00,61.6,61.0,29.89,NE,38,0.0,1.0,97,0.00,,,0.00,weatherlink.com 1.10,2013-06-10 11:43:00,
2013-06-10 07:58:00,61.8,61.0,29.88,NE,38,0.0,1.0,97,0.00,,,0.00,weatherlink.com 1.10,2013-06-10 11:58:00,
2013-06-10 08:13:00,62.0,61.0,29.88,NE,38,0.0,0.0,97,0.00,,,0.00,weatherlink.com 1.10,2013-06-10 12:13:00,
2013-06-10 08:28:00,62.1,61.0,29.87,NE,38,0.0,1.0,97,0.00,,,0.00,weatherlink.com 1.10,2013-06-10 12:28:00,
2013-06-10 08:43:00,62.3,62.0,29.87,NW,318,0.0,1.0,97,0.00,,,0.00,weatherlink.com 1.10,2013-06-10 12:43:00,
2013-06-10 08:58:00,62.3,62.0,29.87,NE,40,0.0,3.0,97,0.00,,,0.00,weatherlink.com 1.10,2013-06-10 12:58:00,
2013-06-10 09:13:00,63.8,63.0,29.87,NNW,342,0.0,2.0,98,0.00,,,0.00,weatherlink.com 1.10,2013-06-10 13:13:00,
2013-06-10 09:28:00,65.3,64.0,29.88,East,79,1.0,2.0,96,0.00,,,0.00,weatherlink.com 1.10,2013-06-10 13:28:00,
2013-06-10 09:43:00,65.5,64.0,29.87,SSE,157,1.0,2.0,95,0.00,,,0.00,weatherlink.com 1.10,2013-06-10 13:43:00,
2013-06-10 09:58:00,65.2,64.0,29.87,SSE,149,0.0,2.0,95,0.00,,,0.00,weatherlink.com 1.10,2013-06-10 13:58:00,
2013-06-10 10:13:00,64.6,63.0,29.87,SSE,149,0.0,1.0,95,0.00,,,0.00,weatherlink.com 1.10,2013-06-10 14:13:00,
2013-06-10 10:28:00,64.5,64.0,29.87,SSE,149,0.0,0.0,97,0.00,,,0.00,weatherlink.com 1.10,2013-06-10 14:28:00,
2013-06-10 10:43:00,64.7,64.0,29.86,SSE,149,1.0,2.0,97,0.00,,,0.00,weatherlink.com 1.10,2013-06-10 14:43:00,
2013-06-10 10:58:00,64.9,64.0,29.87,SSE,149,0.0,2.0,97,0.00,,,0.00,weatherlink.com 1.10,2013-06-10 14:58:00,
2013-06-10 11:13:00,64.8,64.0,29.86,ENE,69,1.0,2.0,97,0.00,,,0.00,weatherlink.com 1.10,2013-06-10 15:13:00,
2013-06-10 11:28:00,64.7,64.0,29.86,ENE,70,0.0,1.0,97,0.00,,,0.00,weatherlink.com 1.10,2013-06-10 15:28:00,
2013-06-10 11:43:00,64.8,64.0,29.86,ENE,70,0.0,1.0,97,0.00,,,0.00,weatherlink.com 1.10,2013-06-10 15:43:00,
2013-06-10 11:58:00,64.6,64.0,29.85,WNW,287,1.0,2.0,97,0.00,,,0.00,weatherlink.com 1.10,2013-06-10 15:58:00,
2013-06-10 12:13:00,64.6,64.0,29.85,SW,221,0.0,1.0,97,0.00,,,0.00,weatherlink.com 1.10,2013-06-10 16:13:00,
2013-06-10 12:28:00,64.8,64.0,29.85,South,186,0.0,2.0,97,0.00,,,0.00,weatherlink.com 1.10,2013-06-10 16:28:00,
2013-06-10 12:43:00,65.7,65.0,29.85,SSE,153,0.0,2.0,97,0.00,,,0.00,weatherlink.com 1.10,2013-06-10 16:43:00,
2013-06-10 12:58:00,66.1,65.0,29.86,SSE,155,0.0,2.0,97,0.00,,,0.00,weatherlink.com 1.10,2013-06-10 16:58:00,
2013-06-10 13:13:00,66.0,65.0,29.85,SSE,156,0.0,2.0,97,0.00,,,0.00,weatherlink.com 1.10,2013-06-10 17:13:00,
2013-06-10 13:28:00,66.3,66.0,29.85,East,86,0.0,1.0,97,0.00,,,0.00,weatherlink.com 1.10,2013-06-10 17:28:00,
2013-06-10 13:43:00,66.9,66.0,29.85,East,86,0.0,1.0,96,0.00,,,0.00,weatherlink.com 1.10,2013-06-10 17:43:00,
2013-06-10 13:58:00,66.8,66.0,29.84,South,190,0.0,3.0,96,0.00,,,0.00,weatherlink.com 1.10,2013-06-10 17:58:00,
2013-06-10 14:13:00,66.8,66.0,29.85,South,190,1.0,2.0,96,0.00,,,0.00,weatherlink.com 1.10,2013-06-10 18:13:00,
2013-06-10 14:28:00,68.4,67.0,29.84,ESE,119,0.0,3.0,95,0.00,,,0.00,weatherlink.com 1.10,2013-06-10 18:28:00,
2013-06-10 14:43:00,70.3,68.0,29.84,SSE,150,2.0,4.0,92,0.00,,,0.00,weatherlink.com 1.10,2013-06-10 18:43:00,
2013-06-10 14:58:00,71.8,69.0,29.84,South,175,2.0,3.0,89,0.00,,,0.00,weatherlink.com 1.10,2013-06-10 18:58:00,
2013-06-10 15:13:00,73.1,69.0,29.83,South,191,2.0,4.0,88,0.00,,,0.00,weatherlink.com 1.10,2013-06-10 19:13:00,
2013-06-10 15:28:00,71.6,68.0,29.83,South,181,1.0,4.0,87,0.00,,,0.00,weatherlink.com 1.10,2013-06-10 19:28:00,
2013-06-10 15:43:00,73.4,69.0,29.83,SW,230,4.0,4.0,85,0.00,,,0.00,weatherlink.com 1.10,2013-06-10 19:43:00,
2013-06-10 15:58:00,72.1,69.0,29.83,South,171,1.0,3.0,90,0.00,,,0.00,weatherlink.com 1.10,2013-06-10 19:58:00,
2013-06-10 16:13:00,71.7,67.0,29.83,NNW,342,0.0,2.0,86,0.00,,,0.00,weatherlink.com 1.10,2013-06-10 20:13:00,
2013-06-10 16:28:00,74.9,69.0,29.83,SE,126,2.0,5.0,82,0.00,,,0.00,weatherlink.com 1.10,2013-06-10 20:28:00,
2013-06-10 16:43:00,73.9,68.0,29.83,WSW,246,2.0,4.0,82,0.00,,,0.00,weatherlink.com 1.10,2013-06-10 20:43:00,
2013-06-10 16:58:00,71.1,67.0,29.83,SSE,162,0.0,2.0,88,0.00,,,0.00,weatherlink.com 1.10,2013-06-10 20:58:00,
2013-06-10 17:13:00,72.2,68.0,29.84,SE,142,0.0,2.0,85,0.00,,,0.00,weatherlink.com 1.10,2013-06-10 21:13:00,
2013-06-10 17:28:00,73.6,68.0,29.83,SSW,209,2.0,3.0,83,0.00,,,0.00,weatherlink.com 1.10,2013-06-10 21:28:00,
2013-06-10 17:43:00,73.0,68.0,29.83,SSE,153,1.0,4.0,84,0.00,,,0.00,weatherlink.com 1.10,2013-06-10 21:43:00,
2013-06-10 17:58:00,74.0,68.0,29.83,SSE,149,1.0,4.0,80,0.00,,,0.00,weatherlink.com 1.10,2013-06-10 21:58:00,
2013-06-10 18:13:00,74.3,67.0,29.83,SSW,204,3.0,4.0,79,0.00,,,0.00,weatherlink.com 1.10,2013-06-10 22:13:00,
2013-06-10 18:28:00,73.3,66.0,29.83,SSW,203,0.0,5.0,79,0.00,,,0.00,weatherlink.com 1.10,2013-06-10 22:28:00,
2013-06-10 18:43:00,72.5,66.0,29.83,SW,229,1.0,3.0,81,0.00,,,0.00,weatherlink.com 1.10,2013-06-10 22:43:00,
2013-06-10 18:58:00,72.6,67.0,29.84,SSE,149,2.0,4.0,82,0.00,,,0.00,weatherlink.com 1.10,2013-06-10 22:58:00,
2013-06-10 19:13:00,72.2,67.0,29.84,SSE,165,2.0,3.0,83,0.00,,,0.00,weatherlink.com 1.10,2013-06-10 23:13:00,
2013-06-10 19:28:00,70.9,66.0,29.85,South,171,1.0,4.0,85,0.00,,,0.00,weatherlink.com 1.10,2013-06-10 23:28:00,
2013-06-10 19:43:00,69.2,65.0,29.85,South,171,1.0,4.0,87,0.00,,,0.00,weatherlink.com 1.10,2013-06-10 23:43:00,
2013-06-10 19:58:00,68.5,65.0,29.86,SSW,208,1.0,3.0,88,0.00,,,0.00,weatherlink.com 1.10,2013-06-10 23:58:00,
2013-06-10 20:13:00,67.8,65.0,29.86,SSW,208,0.0,2.0,90,0.00,,,0.00,weatherlink.com 1.10,2013-06-11 00:13:00,
2013-06-10 20:28:00,67.5,65.0,29.86,SSW,208,0.0,1.0,92,0.00,,,0.00,weatherlink.com 1.10,2013-06-11 00:28:00,
2013-06-10 20:43:00,66.8,65.0,29.86,SSW,208,0.0,2.0,92,0.00,,,0.00,weatherlink.com 1.10,2013-06-11 00:43:00,
2013-06-10 20:58:00,66.1,64.0,29.87,SSW,208,1.0,2.0,93,0.00,,,0.00,weatherlink.com 1.10,2013-06-11 00:58:00,
2013-06-10 21:13:00,65.7,64.0,29.87,SSW,208,0.0,0.0,94,0.00,,,0.00,weatherlink.com 1.10,2013-06-11 01:13:00,
2013-06-10 21:28:00,65.4,64.0,29.87,SSW,208,0.0,0.0,95,0.00,,,0.00,weatherlink.com 1.10,2013-06-11 01:28:00,
2013-06-10 21:43:00,65.1,64.0,29.87,SSW,208,0.0,0.0,95,0.00,,,0.00,weatherlink.com 1.10,2013-06-11 01:43:00,
2013-06-10 21:58:00,64.4,63.0,29.87,SSW,208,0.0,0.0,96,0.00,,,0.00,weatherlink.com 1.10,2013-06-11 01:58:00,
2013-06-10 22:13:00,63.4,62.0,29.88,SSW,208,0.0,0.0,96,0.00,,,0.00,weatherlink.com 1.10,2013-06-11 02:13:00,
2013-06-10 22:28:00,62.7,62.0,29.89,SSW,208,0.0,0.0,96,0.00,,,0.00,weatherlink.com 1.10,2013-06-11 02:28:00,
2013-06-10 22:43:00,62.1,61.0,29.89,SSW,208,0.0,0.0,97,0.00,,,0.00,weatherlink.com 1.10,2013-06-11 02:43:00,
2013-06-10 22:58:00,61.7,61.0,29.89,SSW,208,0.0,0.0,97,0.00,,,0.00,weatherlink.com 1.10,2013-06-11 02:58:00,
2013-06-10 23:13:00,61.4,61.0,29.90,SSW,208,0.0,0.0,97,0.00,,,0.00,weatherlink.com 1.10,2013-06-11 03:13:00,
2013-06-10 23:28:00,61.4,61.0,29.90,SSW,208,0.0,0.0,97,0.00,,,0.00,weatherlink.com 1.10,2013-06-11 03:28:00,
2013-06-10 23:43:00,61.3,61.0,29.90,SSW,208,0.0,0.0,97,0.00,,,0.00,weatherlink.com 1.10,2013-06-11 03:43:00,
2013-06-10 23:58:00,60.8,60.0,29.90,SSW,208,0.0,0.0,98,0.00,,,0.00,weatherlink.com 1.10,2013-06-11 03:58:00,